AIC4218 OMDB-VABB

Flight info

Callsign AIC4218
Flight time N/A
Altitude 37000
Route IVURO M677 LALDO B505 NADSO A777 VAXIM L301 KARKU M638 EXOLU POKON2A
Aircraft B77W/H-SDE1E2E3FGHIJ2J3J4J5M1RWXY/LB1D1

Departure

Time 2026-05-06 06:07
Airport Dubai International Airport (OMDB)

Arrival

Time N/A
Airport Chhatrapati Shivaji Maharaj International Airport (VABB)
Time Latitude Longitude Altitude Speed Heading
2026-05-06 05:33 25.24344 55.37009 35 ft 0 kts 31°
2026-05-06 05:53 25.24326 55.36996 34 ft 4 kts 31°
2026-05-06 05:53 25.24302 55.36982 31 ft 4 kts 25°
2026-05-06 05:53 25.24281 55.36969 33 ft 4 kts 45°
2026-05-06 05:53 25.24268 55.36951 31 ft 4 kts 72°
2026-05-06 05:54 25.24266 55.36934 31 ft 4 kts 114°
2026-05-06 05:54 25.24280 55.36909 32 ft 4 kts 124°
2026-05-06 05:54 25.24287 55.36898 31 ft 1 kts 121°
2026-05-06 05:57 25.24286 55.36899 31 ft 1 kts 121°
2026-05-06 05:57 25.24281 55.36909 32 ft 2 kts 121°
2026-05-06 05:57 25.24269 55.36930 30 ft 4 kts 121°
2026-05-06 05:58 25.24250 55.36963 34 ft 6 kts 121°
2026-05-06 05:58 25.24227 55.37005 36 ft 7 kts 121°
2026-05-06 05:58 25.24199 55.37055 37 ft 8 kts 121°
2026-05-06 05:58 25.24166 55.37115 39 ft 10 kts 121°
2026-05-06 05:59 25.24128 55.37183 41 ft 12 kts 121°
2026-05-06 05:59 25.24081 55.37267 42 ft 14 kts 121°
2026-05-06 05:59 25.24031 55.37358 44 ft 14 kts 121°
2026-05-06 05:59 25.23985 55.37452 44 ft 14 kts 109°
2026-05-06 06:00 25.23990 55.37559 48 ft 14 kts 65°
2026-05-06 06:00 25.24063 55.37635 48 ft 16 kts 31°
2026-05-06 06:00 25.24162 55.37702 48 ft 18 kts 32°
2026-05-06 06:00 25.24274 55.37778 48 ft 20 kts 31°
2026-05-06 06:01 25.24391 55.37861 48 ft 21 kts 34°
2026-05-06 06:01 25.24509 55.37950 48 ft 20 kts 34°
2026-05-06 06:01 25.24594 55.38014 48 ft 14 kts 34°
2026-05-06 06:01 25.24646 55.38051 48 ft 0 kts 32°
2026-05-06 06:04 25.24647 55.38051 48 ft 0 kts 32°
2026-05-06 06:04 25.24652 55.38055 48 ft 2 kts 32°
2026-05-06 06:05 25.24665 55.38064 48 ft 3 kts 32°
2026-05-06 06:05 25.24695 55.38085 48 ft 7 kts 32°
2026-05-06 06:05 25.24761 55.38094 48 ft 12 kts 336°
2026-05-06 06:05 25.24804 55.38041 47 ft 1 kts 303°
2026-05-06 06:06 25.24810 55.38032 46 ft 3 kts 303°
2026-05-06 06:06 25.24835 55.37986 46 ft 20 kts 301°
2026-05-06 06:06 25.25034 55.37624 38 ft 101 kts 302°
2026-05-06 06:06 25.25566 55.36662 28 ft 189 kts 300°
2026-05-06 06:07 25.26315 55.35246 446 ft 225 kts 299°
2026-05-06 06:07 25.27150 55.33743 1364 ft 234 kts 300°
2026-05-06 06:07 25.28109 55.32221 2249 ft 249 kts 303°
2026-05-06 06:07 25.29168 55.30655 3083 ft 256 kts 310°
2026-05-06 06:08 25.30497 55.29343 3935 ft 262 kts 328°
2026-05-06 06:08 25.32205 55.28484 4673 ft 275 kts 346°
2026-05-06 06:08 25.34101 55.28233 5529 ft 275 kts
2026-05-06 06:08 25.35961 55.28495 6598 ft 267 kts 11°
2026-05-06 06:09 25.37795 55.28955 7370 ft 275 kts 16°
2026-05-06 06:09 25.39676 55.29600 7906 ft 293 kts 20°
2026-05-06 06:09 25.41378 55.30731 8745 ft 286 kts 48°
2026-05-06 06:09 25.42453 55.32564 9589 ft 285 kts 60°
2026-05-06 06:10 25.43513 55.34433 9970 ft 289 kts 55°
2026-05-06 06:10 25.44697 55.36258 9986 ft 294 kts 53°
2026-05-06 06:10 25.45941 55.38054 9996 ft 293 kts 52°
2026-05-06 06:10 25.47135 55.39715 9984 ft 290 kts 51°
2026-05-06 06:11 25.48400 55.41453 10023 ft 295 kts 51°
2026-05-06 06:11 25.49717 55.43322 10238 ft 321 kts 52°
2026-05-06 06:11 25.51135 55.45363 10429 ft 347 kts 53°
2026-05-06 06:11 25.52312 55.47754 10611 ft 367 kts 73°
2026-05-06 06:12 25.52558 55.50591 11214 ft 379 kts 95°
2026-05-06 06:12 25.51817 55.53411 11990 ft 387 kts 117°
2026-05-06 06:12 25.50403 55.55946 12758 ft 391 kts 122°
2026-05-06 06:12 25.48898 55.58480 13598 ft 397 kts 123°
2026-05-06 06:13 25.47379 55.61048 14409 ft 400 kts 122°
2026-05-06 06:13 25.45871 55.63652 15214 ft 404 kts 122°
2026-05-06 06:13 25.44358 55.66296 15956 ft 410 kts 122°
2026-05-06 06:13 25.42855 55.69005 16677 ft 415 kts 118°
2026-05-06 06:14 25.41873 55.72007 17291 ft 420 kts 102°
2026-05-06 06:14 25.41317 55.75189 17979 ft 426 kts 101°
2026-05-06 06:14 25.40707 55.78429 18645 ft 431 kts 102°
2026-05-06 06:14 25.40033 55.81676 19271 ft 437 kts 103°
2026-05-06 06:15 25.39322 55.84965 19865 ft 443 kts 103°
2026-05-06 06:15 25.38599 55.88297 20511 ft 447 kts 103°
2026-05-06 06:15 25.37867 55.91701 21173 ft 452 kts 103°
2026-05-06 06:15 25.37139 55.95103 21783 ft 457 kts 103°
2026-05-06 06:16 25.36404 55.98546 22369 ft 463 kts 103°
2026-05-06 06:16 25.35661 56.02028 22944 ft 468 kts 103°
2026-05-06 06:16 25.34909 56.05554 23500 ft 473 kts 103°
2026-05-06 06:16 25.34387 56.07998 23821 ft 476 kts 103°
2026-05-06 06:17 25.33621 56.11570 24287 ft 481 kts 103°
2026-05-06 06:17 25.32847 56.15192 24748 ft 486 kts 103°
2026-05-06 06:17 25.32285 56.18881 25193 ft 490 kts 96°
2026-05-06 06:17 25.31992 56.22648 25632 ft 495 kts 94°
2026-05-06 06:18 25.31782 56.26482 26058 ft 500 kts 94°
2026-05-06 06:18 25.31549 56.30328 26470 ft 505 kts 94°
2026-05-06 06:18 25.31255 56.34211 26887 ft 509 kts 95°
2026-05-06 06:18 25.30923 56.38116 27312 ft 513 kts 95°
2026-05-06 06:19 25.30666 56.42065 27714 ft 517 kts 92°
2026-05-06 06:19 25.30556 56.46046 28089 ft 521 kts 91°
2026-05-06 06:19 25.30479 56.50056 28452 ft 525 kts 91°
2026-05-06 06:19 25.30363 56.54102 28793 ft 528 kts 94°
2026-05-06 06:20 25.29931 56.58144 29112 ft 532 kts 101°
2026-05-06 06:20 25.29127 56.62144 29435 ft 534 kts 106°
2026-05-06 06:20 25.28017 56.66069 29749 ft 536 kts 112°
2026-05-06 06:20 25.26600 56.69886 30057 ft 537 kts 114°
2026-05-06 06:21 25.25126 56.73681 30431 ft 537 kts 115°
2026-05-06 06:21 25.23645 56.77463 30848 ft 536 kts 115°
2026-05-06 06:21 25.22172 56.81246 31261 ft 535 kts 115°
2026-05-06 06:21 25.20716 56.85019 31654 ft 535 kts 115°
2026-05-06 06:22 25.19266 56.88807 32040 ft 535 kts 115°
2026-05-06 06:22 25.17824 56.92593 32420 ft 535 kts 115°
2026-05-06 06:22 25.16384 56.96383 32811 ft 535 kts 115°
2026-05-06 06:22 25.14947 57.00164 33186 ft 534 kts 115°
2026-05-06 06:23 25.13509 57.03942 33505 ft 535 kts 115°
2026-05-06 06:23 25.12064 57.07731 33847 ft 535 kts 115°
2026-05-06 06:23 25.10621 57.11510 34184 ft 534 kts 115°
2026-05-06 06:23 25.09179 57.15283 34568 ft 532 kts 115°
2026-05-06 06:24 25.07764 57.18983 34970 ft 530 kts 115°
2026-05-06 06:24 25.06313 57.22770 35342 ft 528 kts 115°
2026-05-06 06:24 25.04887 57.26489 35683 ft 527 kts 115°
2026-05-06 06:24 25.03457 57.30214 36014 ft 526 kts 115°
2026-05-06 06:25 25.02032 57.33923 36341 ft 525 kts 115°
2026-05-06 06:25 25.00628 57.37577 36675 ft 524 kts 115°
2026-05-06 06:25 24.97749 57.45054 36864 ft 528 kts 115°
2026-05-06 06:26 24.96315 57.48774 36860 ft 527 kts 115°
2026-05-06 06:26 24.93481 57.56120 36863 ft 521 kts 115°
2026-05-06 06:27 24.90685 57.63351 36874 ft 520 kts 115°
2026-05-06 06:27 24.87845 57.70685 36872 ft 520 kts 115°
2026-05-06 06:28 24.85006 57.78007 36872 ft 520 kts 115°
2026-05-06 06:28 24.82125 57.85321 36868 ft 521 kts 116°
2026-05-06 06:29 24.78989 57.92505 36869 ft 521 kts 118°
2026-05-06 06:29 24.75776 57.99670 36869 ft 522 kts 118°
2026-05-06 06:30 24.72592 58.06862 36868 ft 523 kts 117°
2026-05-06 06:30 24.69429 58.14071 36870 ft 524 kts 117°
2026-05-06 06:31 24.66262 58.21288 36866 ft 524 kts 117°
2026-05-06 06:31 24.63095 58.28489 36864 ft 524 kts 117°
2026-05-06 06:32 24.59917 58.35696 36877 ft 523 kts 117°
2026-05-06 06:32 24.56743 58.42883 36864 ft 523 kts 117°
2026-05-06 06:33 24.53562 58.50073 36861 ft 523 kts 117°
2026-05-06 06:33 24.50385 58.57245 36861 ft 522 kts 117°
2026-05-06 06:34 24.47204 58.64415 36876 ft 522 kts 117°
2026-05-06 06:34 24.44024 58.71574 36873 ft 522 kts 118°
2026-05-06 06:35 24.41008 58.78354 36859 ft 522 kts 117°
2026-05-06 06:35 24.37850 58.85466 36859 ft 522 kts 117°
2026-05-06 06:36 24.34672 58.92622 36870 ft 522 kts 117°
2026-05-06 06:36 24.31471 58.99817 36870 ft 522 kts 117°
2026-05-06 06:37 24.28282 59.06972 36865 ft 522 kts 117°
2026-05-06 06:37 24.25092 59.14117 36868 ft 522 kts 117°
2026-05-06 06:38 24.21897 59.21263 36867 ft 522 kts 117°
2026-05-06 06:38 24.18704 59.28393 36868 ft 522 kts 117°
2026-05-06 06:39 24.15504 59.35528 36864 ft 522 kts 117°
2026-05-06 06:39 24.12409 59.42418 36860 ft 522 kts 117°
2026-05-06 06:40 24.09205 59.49543 36864 ft 522 kts 117°
2026-05-06 06:40 24.05995 59.56655 36868 ft 522 kts 118°
2026-05-06 06:41 24.02776 59.63769 36868 ft 521 kts 118°
2026-05-06 06:41 23.99555 59.70878 36868 ft 521 kts 118°
2026-05-06 06:42 23.96358 59.77927 36866 ft 521 kts 118°
2026-05-06 06:42 23.93136 59.85021 36862 ft 521 kts 118°
2026-05-06 06:43 23.89912 59.92109 36863 ft 521 kts 118°
2026-05-06 06:43 23.86687 59.99188 36858 ft 520 kts 118°
2026-05-06 06:44 23.83458 60.06265 36870 ft 520 kts 118°
2026-05-06 06:44 23.80229 60.13332 36869 ft 520 kts 118°
2026-05-06 06:45 23.76992 60.20406 36866 ft 520 kts 118°
2026-05-06 06:45 23.73755 60.27467 36871 ft 520 kts 118°
2026-05-06 06:46 23.70519 60.34519 36870 ft 520 kts 118°
2026-05-06 06:46 23.67272 60.41582 36869 ft 520 kts 118°
2026-05-06 06:47 23.64028 60.48629 36874 ft 520 kts 118°
2026-05-06 06:47 23.60780 60.55674 36881 ft 520 kts 118°
2026-05-06 06:48 23.57527 60.62718 36881 ft 520 kts 118°
2026-05-06 06:48 23.54277 60.69748 36881 ft 520 kts 118°
2026-05-06 06:49 23.51042 60.76733 36886 ft 519 kts 118°
2026-05-06 06:49 23.47788 60.83752 36886 ft 519 kts 118°
2026-05-06 06:50 23.44531 60.90766 36888 ft 519 kts 118°
2026-05-06 06:50 23.41271 60.97775 36892 ft 519 kts 118°
2026-05-06 06:51 23.38009 61.04780 36893 ft 519 kts 118°
2026-05-06 06:51 23.34745 61.11780 36892 ft 518 kts 118°
2026-05-06 06:52 23.32136 61.19090 36901 ft 519 kts 105°
2026-05-06 06:52 23.30810 61.26798 36896 ft 519 kts 96°
2026-05-06 06:53 23.30157 61.34624 36896 ft 520 kts 95°
2026-05-06 06:53 23.29532 61.42453 36897 ft 520 kts 95°
2026-05-06 06:54 23.28859 61.50288 36899 ft 520 kts 95°
2026-05-06 06:54 23.28154 61.58110 36901 ft 520 kts 95°
2026-05-06 06:55 23.27555 61.64674 36899 ft 520 kts 95°
2026-05-06 06:55 23.26840 61.72498 36899 ft 520 kts 95°
2026-05-06 06:56 23.26123 61.80322 36902 ft 520 kts 96°
2026-05-06 06:56 23.25402 61.88156 36904 ft 520 kts 96°
2026-05-06 06:57 23.24678 61.95978 36904 ft 520 kts 96°
2026-05-06 06:57 23.23950 62.03796 36907 ft 520 kts 96°
2026-05-06 06:58 23.23218 62.11624 36908 ft 520 kts 96°
2026-05-06 06:58 23.22483 62.19436 36905 ft 520 kts 96°
2026-05-06 06:59 23.21742 62.27268 36907 ft 520 kts 96°
2026-05-06 06:59 23.20997 62.35096 36909 ft 520 kts 96°
2026-05-06 07:00 23.20249 62.42920 36906 ft 520 kts 96°
2026-05-06 07:00 23.19497 62.50746 36910 ft 521 kts 96°
2026-05-06 07:01 23.18741 62.58569 36910 ft 521 kts 96°
2026-05-06 07:01 23.17983 62.66382 36911 ft 521 kts 96°
2026-05-06 07:02 23.17217 62.74226 36908 ft 521 kts 96°
2026-05-06 07:02 23.16449 62.82054 36910 ft 521 kts 96°
2026-05-06 07:03 23.15681 62.89836 36905 ft 521 kts 96°
2026-05-06 07:03 23.14905 62.97660 36909 ft 521 kts 96°
2026-05-06 07:04 23.14125 63.05497 36916 ft 522 kts 96°
2026-05-06 07:04 23.13339 63.13338 36906 ft 522 kts 96°
2026-05-06 07:05 23.12551 63.21169 36908 ft 522 kts 96°
2026-05-06 07:05 23.11759 63.28996 36903 ft 522 kts 96°
2026-05-06 07:06 23.10963 63.36830 36908 ft 522 kts 96°
2026-05-06 07:06 23.10162 63.44668 36907 ft 522 kts 96°
2026-05-06 07:07 23.09358 63.52499 36904 ft 522 kts 96°
2026-05-06 07:07 23.08579 63.60046 36904 ft 522 kts 96°
2026-05-06 07:08 23.07767 63.67877 36907 ft 522 kts 96°
2026-05-06 07:08 23.06977 63.75472 36699 ft 519 kts 96°
2026-05-06 07:08 23.06570 63.79360 36557 ft 518 kts 96°
2026-05-06 07:09 23.06123 63.83230 36477 ft 517 kts 99°
2026-05-06 07:09 23.04352 63.90785 36409 ft 517 kts 110°
2026-05-06 07:10 23.01648 63.98008 36411 ft 517 kts 113°
2026-05-06 07:10 22.98858 64.05216 36439 ft 519 kts 113°
2026-05-06 07:10 22.97465 64.08844 36565 ft 520 kts 113°
2026-05-06 07:11 22.96085 64.12466 36734 ft 520 kts 113°
2026-05-06 07:11 22.93326 64.19754 36876 ft 522 kts 113°